shoulder
new_line
new_line
first
second
third
Al di la della Luna; Beyond the Moon; Astrophotography; Astrofotografia; Danilo Pivato
 
 
         
         
2016 - 2017
Orbital Elements

Epoch 2017 Jan. 7.0 TT = JDT 2457760.5
T 2016 Dec. 31.26671 TT 
q   0.5325589            (2000.0)                     P                        Q
n   0.18718687     Peri.  326.26198     +0.56817763     -0.81956406
a   3.0265821      Node    89.00842     +0.77042681     +0.49814640
e   0.8240395      Incl.        4.24942     +0.28916553     +0.28313410
P   5.27
Return in the future: 2022
 
         
         
2016.12.27
2016.12.28
2016.12.30
2017.01.04
2017.01.06
         
       
2017.02.19
       
         
         
         
         
         
2011

Orbital Elements

Epoch 2011 Oct. 6.0 TT = JDT 2455840.5
T 2011 Sept. 28.78133 TT                                                         MPC
q   0.5296407            (2000.0)                          P                    Q
n   0.18779283     Peri.  326.24481     +0.56846550     -0.81935985
a   3.0200679      Node    89.00533     +0.77026055     +0.49840107
e   0.8246262      Incl.        4.25233     +0.28904267     +0.28327693
P   5.25
Return in the future: 2016
         
         
20'11.09.21
20'11.09.22
20'11.10.02
20'11.10.11
20'11.10.15
         
         
         
         
         
         

 

       
 
Since: 01/01/2004
 
       
 
Since: 01/11/2010